Home   Weather   Prievidza   Past weeks

Flag for Slovakia Past Weather in Prievidza, Slovakia — Yesterday and Last 2 Weeks

Now
50 °F

Cool.


Feels Like: 50 °F
Forecast: 52 / 81 °F
Wind: 2 mph from North

Location: Prievidza

Current Time: May 29, 2017 at 4:01:59 am

Latest Report: May 29, 2017 at 3:00 am


Visibility: 28 mi

Pressure: 30.17 "Hg

Humidity: 86%

Dew Point: 46 °F

Location of PrievidzaLocation

Past Weather in Prievidza — Graph

°F

Prievidza Temperature Yesterday

Maximum temperature yesterday: 79 °F (at 5:00 pm)
Minimum temperature yesterday: 46 °F (at 5:00 am)
Average temperature yesterday: 65 °F

High & Low Weather Summary for the Past Weeks

 TemperatureHumidityPressure
High81 °F (May 19, 3:00 pm)96% (May 24, 6:00 am)30.37 "Hg (May 24, 6:00 am)
Low44 °F (May 26, 5:00 am)27% (May 17, 5:00 pm)29.86 "Hg (May 19, 6:00 pm)
Average63 °F63%30.10 "Hg
* Reported May 14 2:00 am — May 29 2:00 am, Prievidza. Weather by CustomWeather, © 2017

Note: Actual official high and low records may vary slightly from our data, if they occured in-between our weather recording intervals... More about our weather records

Advertising

Prievidza Weather History for the Previous 24 Hours

Scroll right to see more
 ConditionsComfort  
Time TempWeatherWind HumidityBarometerVisibility
2:00 am
Mon, May 29
52 °FCool.1 mph85%30.19 "Hg28 mi
1:00 am54 °FCool.1 mph82%30.19 "Hg28 mi
12:00 am56 °FCool.N/A80%30.20 "Hg31 mi
11:00 pm
Sun, May 28
59 °FCool.N/A76%30.19 "Hg28 mi
10:00 pm62 °FClear.No wind68%30.19 "Hg31 mi
9:00 pm66 °FClear.2 mph58%30.16 "Hg31 mi
8:00 pm71 °FSunny.2 mph39%30.15 "Hg25 mi
7:00 pm75 °FSunny.5 mph37%30.15 "Hg31 mi
6:00 pm77 °FPassing clouds.5 mph37%30.15 "Hg31 mi
5:00 pm79 °FPassing clouds.5 mph37%30.15 "Hg31 mi
4:00 pm79 °FPassing clouds.N/A37%30.16 "Hg25 mi
3:00 pm79 °FPassing clouds.N/A37%30.17 "Hg22 mi
2:00 pm78 °FPassing clouds.N/A32%30.19 "Hg22 mi
1:00 pm76 °FPassing clouds.N/A37%30.21 "Hg19 mi
12:00 pm75 °FPassing clouds.N/A35%30.21 "Hg25 mi
11:00 am72 °FPassing clouds.N/A39%30.23 "Hg19 mi
10:00 am70 °FPassing clouds.N/A42%30.24 "Hg25 mi
9:00 am65 °FSunny.2 mph50%30.26 "Hg25 mi
8:00 am61 °FSunny.3 mph56%30.27 "Hg25 mi
7:00 am58 °FCool.2 mph66%30.27 "Hg22 mi
6:00 am49 °FCool.No wind85%30.30 "Hg25 mi
5:00 am46 °FCool.No wind84%30.29 "Hg28 mi
4:00 am48 °FCool.No wind82%30.28 "Hg28 mi
Weather by CustomWeather, © 2017

See weather overviewHow to use our weather pages